Simultaneous Nadir Overpasses (SNOs) Predictions

Prediction of SNOs between METOP-B and NOAA-19 Satellite Orbit:

Table of predicted SNOs for the next 14.0 days since TLE Epoch: 11/29/2014
Index Date (METOP-B) Time (METOP-B) Lat,Lon (METOP-B) SZA (METOP-B ) Date (NOAA-19) Time (NOAA-19) Lat,Lon (NOAA-19) SZA (NOAA-19 ) Distance(km) Time Diff (sec)
1 11/29/2014 03:12:33 58.90, -3.17 129.50 11/29/2014 03:12:32 58.90, -3.17 129.50 0.24 1
2 11/29/2014 03:55:10 -81.08,-119.03 73.58 11/29/2014 03:55:09 -81.08,-119.02 73.58 0.07 1
3 11/29/2014 04:46:06 81.08, 48.34 106.42 11/29/2014 04:46:05 81.08, 48.35 106.42 0.07 1
4 11/29/2014 05:37:13 -81.08,-144.46 73.58 11/29/2014 05:37:12 -81.08,-144.46 73.58 0.07 1
5 11/29/2014 06:28:09 81.08, 22.91 106.42 11/29/2014 06:28:08 81.08, 22.91 106.42 0.07 1
6 11/29/2014 07:19:16 -81.08,-169.89 73.57 11/29/2014 07:19:15 -81.08,-169.89 73.57 0.07 1
7 11/29/2014 08:10:12 81.08, -2.53 106.42 11/29/2014 08:10:11 81.08, -2.52 106.42 0.07 1
8 11/29/2014 09:01:19 -81.08, 164.67 73.57 11/29/2014 09:01:18 -81.08, 164.68 73.57 0.07 1
9 11/29/2014 09:52:16 81.08, -28.34 106.48 11/29/2014 09:52:15 81.08, -28.34 106.48 0.07 1
10 11/29/2014 10:43:23 -81.08, 138.86 73.52 11/29/2014 10:43:22 -81.08, 138.86 73.52 0.07 1
11 11/29/2014 11:34:19 81.08, -53.78 106.48 11/29/2014 11:34:18 81.08, -53.77 106.48 0.07 1
12 11/29/2014 12:25:26 -81.08, 113.43 73.52 11/29/2014 12:25:25 -81.08, 113.43 73.52 0.07 1
13 11/29/2014 13:16:22 81.08, -79.21 106.48 11/29/2014 13:16:21 81.08, -79.21 106.48 0.07 1
14 11/29/2014 14:07:29 -81.08, 87.99 73.52 11/29/2014 14:07:28 -81.08, 88.00 73.52 0.07 1
15 11/29/2014 14:58:25 81.08,-104.65 106.48 11/29/2014 14:58:24 81.08,-104.64 106.48 0.07 1
16 11/29/2014 15:49:32 -81.08, 62.56 73.51 11/29/2014 15:49:31 -81.08, 62.56 73.51 0.07 1
17 11/29/2014 16:40:27 81.08,-130.08 106.49 11/29/2014 16:40:26 81.08,-130.08 106.49 0.07 1
18 11/29/2014 17:31:34 -81.08, 37.13 73.51 11/29/2014 17:31:33 -81.08, 37.13 73.51 0.07 1
19 11/29/2014 18:22:31 81.08,-155.90 106.54 11/29/2014 18:22:30 81.08,-155.90 106.54 0.07 1
20 11/29/2014 19:13:38 -81.08, 11.31 73.46 11/29/2014
